Probability
0 0 0 0 0 0 0 0 0 0 0 0 0 3 9 17 25 31 33 36 37 34 31 33 39 46 52 55 55 53 50 51 52 49 45 43 40 34 30 28 26 24 25 26
0 0 0 0 0 0 0 0 0 0 0 0 0 3 9 18 26 30 31 34 34 33 32 30 32 37 44 48 50 49 48 47 47 46 43 40 36 31 29 27 23 20 21 23
0 0 0 0 0 0 0 0 0 0 0 0 1 3 11 22 28 29 28 29 30 31 31 27 25 27 32 37 40 43 44 44 44 43 41 36 31 28 26 23 20 17 17 18
0 0 0 0 0 0 0 0 0 0 0 0 1 4 12 24 29 28 26 25 25 27 27 26 25 25 26 28 31 35 39 41 42 42 39 34 28 25 23 21 17 14 13 13
0 0 0 0 0 0 0 0 0 0 0 0 0 2 10 22 29 28 24 22 20 20 20 22 23 23 23 24 24 26 28 30 33 35 34 30 25 21 20 19 15 12 10 9
0 0 0 0 0 0 0 0 0 0 0 0 0 1 8 19 26 26 23 19 16 15 15 16 17 17 18 19 18 18 19 20 24 27 26 24 20 16 16 16 14 10 7 6
0 0 0 0 0 0 0 0 0 0 0 0 0 2 7 14 19 21 20 17 14 12 12 12 12 12 13 14 14 14 15 17 18 19 20 18 15 13 13 13 11 7 5 4
0 0 0 0 0 0 0 0 0 0 0 0 0 3 6 8 10 14 16 15 12 10 9 8 8 9 9 10 10 11 12 13 14 14 14 13 11 11 11 10 7 4 3 3
0 0 0 0 0 0 0 0 0 0 0 0 1 3 5 5 5 8 12 11 8 6 5 4 3 4 4 5 7 7 6 7 7 8 7 7 7 8 8 6 4 3 3 3
0 0 0 0 0 0 0 0 0 0 0 0 0 2 4 3 4 6 8 6 3 2 2 2 1 1 1 2 3 3 2 2 2 2 2 2 3 5 5 4 3 3 3 3
0 0 0 0 0 0 0 0 0 0 0 0 0 1 3 4 5 7 6 2 0 0 1 1 0 0 0 1 1 0 0 0 0 0 0 0 1 3 3 3 3 3 3 3
0 0 0 0 0 0 0 0 0 0 0 0 0 1 4 7 9 9 5 1 0 0 0 0 0 0 0 0 0 0 0 0 0 0 0 0 1 2 2 2 2 3 3 3
0 0 0 0 0 0 0 0 0 0 0 0 0 1 4 8 10 8 5 1 0 0 0 0 0 0 0 0 0 0 0 0 0 0 0 0 0 1 1 1 2 3 3 3
0 0 0 0 0 0 0 0 0 0 0 0 0 1 4 7 8 6 3 1 0 0 0 0 0 0 0 0 0 0 0 0 0 0 0 0 0 0 0 1 1 2 2 2
0 0 0 0 0 0 0 0 0 0 0 0 0 2 4 6 6 4 1 0 0 0 0 0 0 0 0 0 0 0 0 0 0 0 0 0 0 0 0 0 0 1 1 1
0 0 0 0 0 0 0 0 0 0 0 1 2 5 8 7 5 2 0 0 0 0 0 0 0 0 0 0 0 0 0 0 0 0 0 0 0 0 0 0 0 0 0 0
0 0 0 0 0 0 0 0 0 0 0 1 3 6 9 7 3 0 0 0 0 0 0 0 0 0 0 0 0 0 0 0 0 0 0 0 0 0 0 0 0 0 0 0
0 0 0 0 0 0 0 1 0 0 0 1 3 5 6 4 1 0 0 0 0 0 0 0 0 0 0 0 0 0 0 0 0 0 0 0 0 0 0 0 0 0 0 0
0 0 0 0 0 0 0 0 0 0 0 1 2 3 3 1 0 0 0 0 0 0 0 0 0 0 0 0 0 0 0 0 0 0 0 0 0 0 0 0 0 0 0 0
0 0 0 0 0 0 0 0 0 0 0 1 2 2 1 1 1 0 0 0 0 0 0 0 0 0 0 0 0 0 0 0 0 0 0 0 0 0 0 0 0 0 0 0
0 0 0 0 0 0 0 0 0 0 1 1 3 3 2 2 2 1 0 0 0 0 0 0 0 0 0 0 0 0 0 0 0 0 0 0 0 0 0 0 0 0 0 0
0 0 0 0 0 0 1 1 1 0 0 2 4 6 5 3 2 1 0 0 0 0 0 0 0 0 0 0 0 0 0 0 0 0 0 0 0 0 0 0 0 0 0 0
0 0 0 0 0 0 1 2 1 0 0 2 4 5 4 2 1 0 0 0 0 0 0 0 0 0 0 0 0 0 0 0 0 0 0 0 0 0 0 0 0 0 0 0
1 0 0 0 0 0 1 1 1 0 0 2 2 2 1 0 0 0 0 0 0 0 0 0 0 0 0 0 0 0 0 0 0 0 0 0 0 0 0 0 0 0 0 0
1 0 0 0 1 0 0 0 0 0 0 1 1 0 0 0 0 0 0 0 0 0 0 0 0 0 0 0 0 0 0 0 0 0 0 0 0 0 0 0 0 0 0 0
1 0 0 0 1 0 0 0 0 0 0 0 0 0 0 0 0 0 0 0 0 0 0 0 0 0 0 0 0 0 0 0 0 0 0 0 0 0 0 0 0 0 0 0
Wind_Speed
13 13 12 9 8 9 11 11 10 8 4 5 6 7 4 3 2 3 4 4 7 7 8 9 8 8 7 7 6 5 4 3 3 2 2 2 2 2 3 3 4 4 4 3
13 14 12 7 5 8 11 11 12 9 5 5 7 9 6 5 4 5 6 7 7 8 9 10 9 9 8 8 7 6 5 4 3 1 1 2 3 3 3 3 5 5 4 3
14 9 6 7 8 10 12 12 11 10 8 7 11 12 9 6 6 7 7 7 8 10 10 9 9 8 8 8 8 6 5 4 4 3 2 3 3 3 2 3 3 4 5 4
12 9 5 7 10 10 11 10 10 11 12 10 11 10 7 8 8 8 7 8 8 10 9 8 8 8 8 8 7 7 6 6 5 4 3 4 4 3 2 3 4 5 6 6
10 9 8 10 9 8 10 11 12 14 14 14 12 10 7 8 9 9 9 9 8 8 8 9 9 9 9 8 7 7 7 7 6 5 4 4 4 4 3 5 6 7 7 7
13 11 10 10 8 7 9 11 13 13 11 14 11 10 6 4 9 11 11 9 7 8 8 9 9 8 8 9 9 8 8 9 8 7 7 7 6 6 7 7 6 5 5 6
12 13 10 8 9 8 8 8 7 7 6 8 7 6 2 5 8 12 13 12 9 9 8 9 9 9 10 10 10 9 9 9 8 8 8 7 7 7 7 6 6 6 5 5
10 7 5 5 7 7 6 8 7 7 8 7 4 2 3 7 9 12 13 12 10 10 9 10 10 9 9 10 10 10 9 9 8 8 8 7 7 6 6 7 6 6 5 5
7 5 5 6 6 7 8 7 7 8 12 10 3 3 5 7 8 10 12 11 11 10 10 10 9 9 10 10 9 10 10 10 9 9 9 8 9 8 8 8 7 6 5 5
6 7 7 6 6 7 7 7 6 6 6 7 5 0 2 7 8 9 10 10 10 10 9 9 9 9 9 10 10 10 10 10 9 9 9 9 9 8 8 8 8 7 7 6
6 7 8 7 6 6 6 6 6 6 5 5 5 2 2 6 9 10 10 10 9 9 9 8 8 9 9 9 9 10 10 10 10 10 10 10 9 9 9 8 8 7 6 6
2 4 8 9 6 4 7 6 5 5 5 5 4 1 3 7 10 11 11 11 10 9 9 9 9 9 9 10 10 10 9 10 9 9 9 9 9 9 9 8 8 6 6 6
4 3 6 7 6 5 6 6 5 5 4 5 4 1 6 9 11 11 11 11 10 9 9 9 9 9 9 9 9 9 9 9 9 9 9 9 9 8 8 7 6 6 6 6
3 4 5 6 7 7 6 6 6 5 4 4 2 3 6 8 10 10 10 10 10 9 9 9 9 9 9 8 8 9 9 8 8 9 9 9 8 7 7 6 6 6 6 6
3 6 7 8 9 9 8 7 6 5 6 5 2 3 7 9 10 11 11 10 10 10 10 9 9 9 8 8 8 8 8 8 7 8 9 8 7 7 6 6 6 5 5 6
2 6 9 10 10 9 7 5 5 5 5 4 3 5 8 10 10 11 10 10 10 10 10 10 10 9 8 8 8 8 7 7 7 7 8 7 7 6 6 5 5 5 6 6
4 5 8 9 10 8 4 2 3 3 4 5 4 7 11 10 9 10 10 10 11 11 10 10 10 9 8 7 7 7 6 6 6 7 7 6 6 5 5 6 6 6 5 6
5 5 5 7 9 6 1 2 3 3 5 7 10 12 11 11 10 9 10 11 11 11 11 10 9 9 8 7 6 6 6 6 6 6 6 6 6 6 5 5 6 5 5 5
5 5 5 5 5 3 1 2 2 3 5 8 11 12 13 14 12 8 9 11 11 11 10 9 9 8 7 6 6 6 5 5 6 6 6 6 5 5 5 5 4 4 3 4
7 6 6 5 6 2 2 4 4 2 4 8 10 12 12 11 7 7 10 12 12 11 10 9 8 8 7 6 5 6 6 6 6 6 6 5 4 4 4 4 3 3 3 3
8 7 8 8 5 1 4 3 2 1 5 6 8 10 9 5 7 13 14 13 12 11 11 9 8 7 7 7 6 6 6 6 6 5 6 5 4 4 4 4 3 2 3 4
4 4 5 5 2 2 5 3 5 6 7 8 10 12 13 15 16 16 15 14 13 12 11 9 8 8 6 6 6 6 6 5 5 5 5 5 3 4 5 4 3 3 3 3
1 2 2 3 5 7 7 9 8 8 9 10 12 15 17 17 16 15 14 14 13 12 10 9 9 8 7 6 5 6 6 5 5 5 5 4 4 4 3 3 3 2 2 2
2 2 1 5 9 9 9 10 9 10 11 13 15 16 17 17 16 15 14 13 12 11 10 8 9 9 7 6 5 6 5 5 5 5 4 4 4 4 4 4 4 5 5 4
1 1 1 5 10 10 9 10 11 12 14 15 16 16 17 17 17 15 13 13 11 9 8 8 8 8 8 7 6 6 5 5 4 4 3 3 4 4 5 6 6 6 6 5
1 2 0 3 9 7 11 12 13 14 14 16 16 16 16 16 16 15 13 11 11 10 9 8 8 8 8 7 7 6 5 4 3 2 3 3 3 3 4 5 6 9 7 8
Wind_Direction
223 232 244 243 242 279 303 302 294 283 265 254 257 250 236 217 152 111 105 95 92 78 67 57 53 53 46 51 54 60 56 57 79 108 158 178 134 95 80 70 66 55 35 29
236 234 249 263 275 279 281 280 280 277 271 267 270 259 226 200 161 128 118 104 91 79 64 54 48 46 40 46 47 51 49 43 43 56 147 140 111 87 83 72 61 52 47 33
244 248 232 254 259 259 268 270 279 290 285 257 257 254 228 164 129 113 106 102 93 82 69 59 53 43 43 40 38 40 48 45 49 45 67 98 96 86 70 64 61 45 42 43
251 254 248 257 264 266 273 283 291 286 278 267 255 262 238 170 144 128 109 98 87 76 72 64 56 48 44 42 40 40 46 49 50 60 78 102 106 107 89 78 68 60 50 47
257 254 251 257 267 280 288 298 292 282 275 272 263 259 239 171 153 136 117 103 94 87 78 69 59 52 45 43 46 43 47 50 47 54 70 86 93 97 91 81 74 66 55 48
267 265 261 265 272 274 283 288 285 274 272 271 277 269 247 158 156 144 130 118 106 98 85 74 66 60 53 47 47 49 52 49 46 50 57 72 83 90 87 80 79 69 61 51
259 258 248 246 262 269 274 279 283 285 277 272 306 294 28 105 135 143 137 128 117 104 89 76 64 56 52 47 44 46 52 53 53 56 59 66 78 85 83 82 80 75 64 59
265 267 261 241 258 281 281 273 275 289 288 287 282 292 74 77 100 119 122 121 112 98 85 74 65 57 56 54 50 50 56 55 56 62 65 67 70 75 78 77 80 82 77 71
297 304 275 270 269 276 281 272 283 286 282 288 268 128 109 85 100 117 121 116 105 93 83 73 65 59 57 55 55 57 60 57 55 61 67 70 73 79 83 84 80 82 86 86
283 289 273 267 257 248 273 298 305 291 294 296 298 171 166 159 151 134 124 115 105 97 90 82 71 65 62 62 58 59 62 63 60 63 67 72 74 78 82 82 79 78 77 79
274 291 289 277 268 288 273 265 277 290 307 308 303 6 131 165 150 136 128 120 113 103 95 88 82 76 72 70 67 65 64 64 65 67 69 70 70 72 76 79 79 78 76 78
298 300 298 301 308 301 278 281 288 290 297 297 302 26 67 116 124 127 126 119 111 105 99 93 86 78 73 71 71 71 70 71 73 76 77 75 72 72 74 75 73 74 74 76
341 310 300 316 338 324 299 295 281 284 297 299 311 88 86 107 113 120 122 119 114 108 102 95 89 83 78 75 75 76 74 75 77 79 80 78 75 74 74 75 76 74 73 74
303 283 281 283 281 278 276 287 299 305 302 305 322 127 132 134 126 124 123 123 120 116 110 102 95 88 85 82 80 81 79 80 82 82 81 79 76 76 77 77 75 76 78 79
280 280 282 272 262 266 272 283 302 312 314 321 341 108 144 146 138 135 135 135 128 121 113 107 102 99 96 92 88 87 87 82 82 87 87 83 81 79 79 79 77 78 81 85
228 290 295 282 271 267 272 289 313 319 327 341 61 85 112 121 125 133 140 139 132 125 120 116 111 107 103 101 99 96 94 93 91 89 89 90 88 86 85 85 83 79 77 75
248 259 290 294 294 288 291 325 348 346 10 15 43 107 121 122 133 142 143 139 133 128 124 120 115 110 107 103 102 103 104 104 101 97 95 96 95 95 95 93 87 81 79 79
262 278 285 286 297 285 118 59 53 35 53 69 98 116 121 122 119 122 135 136 132 129 125 122 119 116 114 113 112 109 106 104 102 104 101 99 96 89 84 84 83 79 79 83
225 262 274 281 293 304 86 91 48 39 73 86 107 114 116 120 113 108 119 126 128 126 123 121 120 120 121 122 125 120 110 106 104 102 99 96 93 92 90 87 86 90 92 94
205 225 256 278 295 310 101 72 62 88 100 88 115 130 139 153 145 134 128 123 121 121 121 122 122 125 122 120 116 110 109 105 100 97 98 94 86 84 89 93 92 94 101 106
206 218 243 263 268 52 40 14 310 328 106 103 121 134 146 141 107 126 128 123 123 125 125 125 126 123 120 119 111 104 102 99 94 92 94 95 95 95 93 90 92 94 88 91
220 231 252 272 281 88 4 9 50 96 114 113 117 117 111 107 112 122 126 127 127 128 130 131 128 121 122 120 113 107 102 106 107 100 96 94 89 87 88 85 86 92 96 106
226 36 24 47 83 93 68 80 97 110 111 114 117 118 121 121 124 126 127 129 131 135 136 135 130 125 122 119 117 114 113 112 103 97 96 93 85 75 81 90 96 99 95 98
115 85 123 112 113 106 100 100 100 102 108 111 117 123 125 126 129 129 129 131 135 138 134 132 129 128 127 128 124 116 114 105 101 102 104 109 105 92 70 50 49 55 45 43
111 175 139 113 125 122 116 111 109 108 110 114 118 123 127 129 131 133 134 136 136 134 131 133 133 133 130 130 127 122 114 110 112 117 121 115 107 101 83 70 50 63 57 49
84 89 283 137 150 140 127 123 122 121 121 122 123 123 128 131 133 134 135 136 136 136 136 136 135 132 131 130 123 122 124 125 121 117 124 127 127 125 121 117 95 62 81 80